| Date | Time | Temp. (oF) | Dew Point (oF) | Rel. Hum. (%) | Press. (in.) | Wind Dir. | Wind Speed (mph) | Hourly Rainfall (in.) |
|
|---|---|---|---|---|---|---|---|---|---|
| 1 | 05/10 | 00:00 | 52 | 50 | 96 | 29.69 | ENE | 2 | 0.00 |
| 2 | 05/09 | 23:00 | 52 | 50 | 95 | 29.71 | WNW | 1 | 0.00 |
| 3 | 05/09 | 22:00 | 53 | 50 | 92 | 29.72 | N | 1 | 0.00 |
| 4 | 05/09 | 21:00 | 54 | 52 | 94 | 29.71 | NNW | 1 | 0.00 |
| 5 | 05/09 | 20:00 | 54 | 52 | 94 | 29.69 | N | 5 | 0.00 |
| 6 | 05/09 | 19:00 | 53 | 51 | 94 | 29.67 | NNE | 3 | 0.00 |
| 7 | 05/09 | 18:00 | 53 | 51 | 96 | 29.66 | NE | 4 | 0.00 |
| 8 | 05/09 | 17:00 | 53 | 51 | 94 | 29.63 | NNE | 11 | 0.00 |
| 9 | 05/09 | 16:00 | 53 | 51 | 96 | 29.61 | N | 14 | 0.00 |
| 10 | 05/09 | 15:00 | 53 | 53 | 100 | 29.60 | NNE | 10 | 0.06 |
| 11 | 05/09 | 14:00 | 52 | 51 | 100 | 29.60 | E | 4 | 0.09 |
| 12 | 05/09 | 13:00 | 52 | 51 | 100 | 29.60 | NE | 13 | 0.03 |
| 13 | 05/09 | 12:00 | 52 | 51 | 100 | 29.60 | NE | 8 | 0.02 |
| 14 | 05/09 | 11:00 | 52 | 51 | 100 | 29.60 | ESE | 4 | 0.02 |
| 15 | 05/09 | 10:00 | 51 | 50 | 100 | 29.60 | ESE | 2 | 0.04 |
| 16 | 05/09 | 09:00 | 52 | 51 | 100 | 29.60 | ENE | 13 | 0.07 |
| 17 | 05/09 | 08:00 | 52 | 51 | 100 | 29.62 | NE | 4 | 0.04 |
| 18 | 05/09 | 07:00 | 52 | 51 | 100 | 29.63 | NE | 14 | 0.03 |
| 19 | 05/09 | 06:00 | 57 | 57 | 100 | 29.64 | NNE | 10 | 0.04 |
| 20 | 05/09 | 05:00 | 60 | 59 | 100 | 29.64 | NNE | 4 | 0.04 |
| 21 | 05/09 | 04:00 | 60 | 59 | 100 | 29.68 | ENE | 3 | 0.03 |
| 22 | 05/09 | 03:00 | 61 | 60 | 100 | 29.70 | NNE | 7 | 0.17 |
| 23 | 05/09 | 02:00 | 62 | 62 | 100 | 29.74 | SW | 0 | 0.05 |
| 24 | 05/09 | 01:00 | 63 | 62 | 99 | 29.76 | SSW | 0 | 0.02 |